Theta_e
293 294 293 292 293 292 292 292 292 292 293 293 293 293 293 293 293 293 292 290 290 290
291 291 290 290 291 292 292 290 290 290 291 291 292 291 291 291 290 290 290 288 288 287
289 289 289 290 289 290 289 289 288 288 289 289 289 290 289 288 288 288 287 286 286 285
288 288 288 288 289 288 288 287 287 287 287 287 287 287 287 286 286 285 285 285 284 283
287 287 287 287 287 287 286 286 286 286 286 285 285 286 285 284 284 283 283 283 283 282
286 286 286 286 286 286 286 285 285 284 284 284 284 284 284 283 282 282 282 282 281 281
285 285 285 285 286 285 285 284 283 283 283 283 283 283 282 282 282 281 281 281 280 280
285 285 285 284 285 284 284 284 284 283 283 282 282 282 282 281 281 280 279 279 278 279
284 283 283 283 283 283 283 283 283 282 282 282 282 281 281 281 280 279 278 277 277 278
283 282 282 282 282 282 282 283 282 282 282 281 282 281 280 279 279 277 277 276 276 275
282 281 281 281 281 281 282 281 281 281 281 281 281 280 279 278 277 276 276 275 275 275
281 281 280 280 280 281 281 280 280 280 280 280 279 280 278 277 276 274 274 275 275 274
281 281 280 280 280 280 281 280 279 279 279 279 278 279 279 277 276 273 273 273 274 274
280 280 281 280 280 279 279 279 278 277 277 277 278 278 278 276 275 274 272 271 272 273
Wind_Speed
5 4 4 4 3 3 3 4 4 5 5 6 5 5 5 5 5 7 7 9 7 6
5 5 5 5 4 3 3 3 4 5 5 5 6 6 6 5 6 7 7 8 7 6
5 4 5 4 4 5 4 4 4 5 5 5 5 5 5 5 6 7 6 5 7 7
4 4 4 4 5 5 5 4 5 5 5 5 5 5 6 6 6 7 7 7 8 8
5 5 5 5 5 5 5 5 5 5 5 5 5 4 5 6 6 7 8 8 8 7
6 6 6 6 6 6 6 5 5 5 5 5 5 6 6 7 7 8 8 7 8 7
7 6 6 6 7 7 6 6 6 6 6 5 5 5 6 6 7 7 8 8 8 8
7 7 7 7 7 6 6 6 7 7 6 5 5 4 6 6 6 7 7 7 8 9
9 8 7 7 7 7 7 7 7 6 6 6 5 7 7 7 7 7 6 6 6 7
10 10 10 9 9 10 10 9 7 7 7 8 8 11 10 8 6 6 6 6 5 5
10 9 10 10 10 10 9 9 9 8 7 7 7 11 11 10 8 7 6 6 5 5
11 11 11 11 11 9 9 9 8 8 8 8 7 11 11 9 7 7 7 6 5 5
10 10 11 11 10 9 9 8 7 8 7 7 9 9 9 7 5 7 6 6 6 7
10 10 11 11 10 9 9 9 8 8 7 6 7 9 9 8 6 6 6 5 4 4
Wind_Direction
97 101 97 85 85 74 71 60 44 51 53 54 53 63 66 70 67 67 65 66 64 66
97 99 103 105 106 107 108 96 81 69 69 66 68 67 74 74 77 75 72 71 69 70
109 106 107 105 97 93 87 82 77 77 76 75 74 77 85 86 81 89 83 81 79 71
128 117 110 104 98 90 90 83 79 75 76 77 80 82 91 94 97 94 91 81 77 70
145 136 124 118 114 115 107 90 91 94 92 84 80 79 82 86 84 85 82 75 73 67
161 159 152 146 142 137 133 126 116 98 85 82 79 81 79 86 86 82 79 77 70 59
175 168 164 154 153 152 147 133 118 108 109 107 102 98 98 97 97 93 86 79 71 62
175 170 166 164 158 148 145 136 132 130 124 121 115 111 119 112 110 109 102 92 79 68
175 171 172 163 158 152 147 147 145 138 128 120 104 116 122 132 124 117 115 107 100 90
183 178 175 170 169 166 163 160 157 150 144 133 128 129 124 120 119 122 117 116 114 94
182 178 173 174 177 172 167 166 161 160 150 136 126 131 129 133 127 120 111 105 104 103
184 178 176 179 179 176 172 168 164 159 151 142 137 147 145 144 136 127 115 101 100 92
183 176 180 181 176 172 173 166 154 156 157 147 135 150 154 153 141 145 137 118 101 88
177 174 176 169 169 167 169 164 166 165 154 138 144 141 148 152 167 162 150 141 123 104